N4GGC Weather Reports


Display with metric or nautical units.
time (UTC)temp
F
wind
direction
speed
MPH
gust
MPH
rain 1hr
in
rain 24hr
in
rain mn
in
humidity
%
barometer
mb
20260510153003 75 236 0.0 8.0 0.00 0.00 0.00 53 1016.8
20260510152459 76 259 0.0 0.0 0.00 0.00 0.00 49 1017.0
20260510151947 76 259 0.0 0.0 0.00 0.00 0.00 52 1016.9
20260510151445 76 38 0.0 0.0 0.00 0.00 0.00 55 1016.9
20260510150941 75 239 0.0 0.0 0.00 0.00 0.00 57 1017.0
20260510150432 75 242 0.0 0.0 0.00 0.00 0.00 53 1017.0
20260510145927 74 242 0.0 0.0 0.00 0.00 0.00 52 1016.9
20260510145426 74 179 0.0 0.0 0.00 0.00 0.00 53 1016.9
20260510144915 74 179 0.0 0.0 0.00 0.00 0.00 56 1016.9
20260510144408 73 316 0.0 0.0 0.00 0.00 0.00 56 1016.8
20260510143903 73 316 0.0 0.0 0.00 0.00 0.00 53 1016.9
20260510143357 72 313 0.0 1.0 0.00 0.00 0.00 55 1016.8
20260510142850 73 125 1.0 7.0 0.00 0.00 0.00 55 1016.9
20260510142346 72 126 5.0 8.0 0.00 0.00 0.00 58 1016.8
20260510141845 71 120 3.0 8.0 0.00 0.00 0.00 56 1016.7
20260510141339 71 146 2.0 7.0 0.00 0.00 0.00 59 1016.8
20260510141113 70 147 1.0 7.0 0.00 0.00 0.00 57 1016.7
20260510140323 71 168 1.0 7.0 0.00 0.00 0.00 56 1016.9
20260510135823 70 166 1.0 7.0 0.00 0.00 0.00 58 1016.9
20260510135551 70 180 0.0 0.0 0.00 0.00 0.00 59 1016.9
20260510134815 70 179 0.0 0.0 0.00 0.00 0.00 59 1016.8
20260510134303 70 180 0.0 0.0 0.00 0.00 0.00 60 1016.6
20260510133801 69 198 0.0 0.0 0.00 0.00 0.00 63 1016.8
20260510133258 68 198 0.0 0.0 0.00 0.00 0.00 64 1016.7
20260510132755 68 200 0.0 0.0 0.00 0.00 0.00 64 1016.7
20260510132243 67 203 0.0 0.0 0.00 0.00 0.00 66 1016.6
20260510131723 66 203 0.0 0.0 0.00 0.00 0.00 66 1016.6
20260510131225 66 204 0.0 0.0 0.00 0.00 0.00 66 1016.5
20260510130935 66 204 0.0 0.0 0.00 0.00 0.00 67 1016.4
20260510130157 65 215 0.0 0.0 0.00 0.00 0.00 68 1016.3
20260510125647 65 215 0.0 0.0 0.00 0.00 0.00 68 1016.3
20260510125136 64 215 0.0 0.0 0.00 0.00 0.00 68 1016.3
20260510124631 64 252 0.0 0.0 0.00 0.00 0.00 67 1016.3
20260510124338 64 254 0.0 0.0 0.00 0.00 0.00 68 1016.2
20260510123617 63 254 0.0 0.0 0.00 0.00 0.00 68 1016.2
20260510123109 62 255 0.0 0.0 0.00 0.00 0.00 73 1016.0
20260510122607 61 255 0.0 0.0 0.00 0.00 0.00 77 1015.9
20260510122042 61 255 0.0 0.0 0.00 0.00 0.00 79 1015.9
20260510121541 61 255 0.0 0.0 0.00 0.00 0.00 78 1015.9
20260510121041 60 255 0.0 0.0 0.00 0.00 0.00 77 1015.7
20260510120757 59 255 0.0 0.0 0.00 0.00 0.00 80 1015.8
20260510120239 58 255 0.0 0.0 0.00 0.00 0.00 81 1015.7
20260510115510 57 255 0.0 0.0 0.00 0.00 0.00 82 1015.5
20260510115012 56 255 0.0 0.0 0.00 0.00 0.00 85 1015.3
20260510114459 55 255 0.0 0.0 0.00 0.00 0.00 86 1015.1
20260510114212 55 255 0.0 0.0 0.00 0.00 0.00 85 1015.0
20260510113449 55 255 0.0 0.0 0.00 0.00 0.00 86 1015.0
20260510112950 55 255 0.0 0.0 0.00 0.00 0.00 86 1014.8
20260510112436 54 255 0.0 0.0 0.00 0.00 0.00 87 1014.6
20260510111934 54 255 0.0 0.0 0.00 0.00 0.00 87 1014.4
20260510111435 53 255 0.0 0.0 0.00 0.00 0.00 87 1014.3
20260510111145 53 255 0.0 0.0 0.00 0.00 0.00 86 1014.1
20260510110421 53 255 0.0 0.0 0.00 0.00 0.00 86 1013.9
20260510105914 53 255 0.0 0.0 0.00 0.00 0.00 86 1013.8
20260510105357 53 255 0.0 0.0 0.00 0.00 0.00 86 1013.6
20260510104855 53 255 0.0 0.0 0.00 0.00 0.00 85 1013.7
20260510104349 53 255 0.0 0.0 0.00 0.00 0.00 85 1013.6
20260510103843 54 255 0.0 0.0 0.00 0.00 0.00 84 1013.6
20260510103335 54 255 0.0 0.0 0.00 0.00 0.00 84 1013.5
20260510102831 54 255 0.0 0.0 0.00 0.00 0.00 84 1013.4
20260510102323 54 255 0.0 0.0 0.00 0.00 0.00 84 1013.4
20260510101817 54 255 0.0 0.0 0.00 0.00 0.00 85 1013.3
20260510101250 54 255 0.0 0.0 0.00 0.00 0.00 85 1013.4
20260510100739 53 255 0.0 0.0 0.00 0.00 0.00 85 1013.3
20260510100230 53 255 0.0 0.0 0.00 0.00 0.00 85 1013.2
20260510095726 53 255 0.0 0.0 0.00 0.00 0.00 86 1013.2
20260510095434 53 255 0.0 0.0 0.00 0.00 0.00 87 1013.1
20260510094705 53 255 0.0 0.0 0.00 0.00 0.00 87 1013.1
20260510094145 53 255 0.0 0.0 0.00 0.00 0.00 87 1013.0
20260510093642 52 255 0.0 0.0 0.00 0.00 0.00 87 1013.1
20260510093127 52 255 0.0 0.0 0.00 0.00 0.00 88 1013.1
20260510092621 52 255 0.0 0.0 0.00 0.00 0.00 87 1013.1
20260510092109 52 255 0.0 0.0 0.00 0.00 0.00 87 1013.1
20260510091550 52 255 0.0 0.0 0.00 0.00 0.00 87 1013.1
20260510091050 52 255 0.0 0.0 0.00 0.00 0.00 87 1013.1
20260510090520 52 255 0.0 0.0 0.00 0.00 0.00 87 1013.0
20260510090238 52 255 0.0 0.0 0.00 0.00 0.00 87 1012.9
20260510085509 52 255 0.0 0.0 0.00 0.00 0.00 87 1013.0
20260510085217 52 255 0.0 0.0 0.00 0.00 0.00 87 1012.9
20260510084434 52 255 0.0 0.0 0.00 0.00 0.00 87 1012.9
20260510084157 52 255 0.0 0.0 0.00 0.00 0.00 86 1012.9
20260510083415 52 255 0.0 0.0 0.00 0.00 0.00 86 1012.9
20260510082908 52 255 0.0 0.0 0.00 0.00 0.00 85 1012.9
20260510082354 52 255 0.0 0.0 0.00 0.00 0.00 85 1012.8
20260510081845 52 255 0.0 0.0 0.00 0.00 0.00 85 1012.7
20260510081344 52 255 0.0 0.0 0.00 0.00 0.00 84 1012.7
20260510080832 53 255 0.0 0.0 0.00 0.00 0.00 84 1012.6
20260510080325 53 255 0.0 0.0 0.00 0.00 0.00 83 1012.6
20260510075817 53 255 0.0 0.0 0.00 0.00 0.00 83 1012.6
20260510075254 53 255 0.0 0.0 0.00 0.00 0.00 83 1012.5
20260510075005 53 255 0.0 0.0 0.00 0.00 0.00 83 1012.4
20260510074228 54 255 0.0 0.0 0.00 0.00 0.00 83 1012.5
20260510073957 54 255 0.0 0.0 0.00 0.00 0.00 82 1012.5
20260510073225 54 255 0.0 0.0 0.00 0.00 0.00 82 1012.5
20260510072948 54 255 0.0 0.0 0.00 0.00 0.00 81 1012.3
20260510072213 54 255 0.0 0.0 0.00 0.00 0.00 81 1012.3
20260510071707 54 255 0.0 0.0 0.00 0.00 0.00 81 1012.2
20260510071150 54 255 0.0 0.0 0.00 0.00 0.00 81 1012.2
20260510070641 54 255 0.0 0.0 0.00 0.00 0.00 82 1012.2
20260510070129 54 255 0.0 0.0 0.00 0.00 0.00 82 1012.2
20260510065611 54 255 0.0 0.0 0.00 0.00 0.00 82 1012.2
20260510065327 54 255 0.0 0.0 0.00 0.00 0.00 82 1012.2
20260510064558 53 255 0.0 0.0 0.00 0.00 0.00 81 1012.1
20260510064045 53 255 0.0 0.0 0.00 0.00 0.00 81 1012.1
20260510063534 53 255 0.0 0.0 0.00 0.00 0.00 81 1012.2
20260510063242 53 255 0.0 0.0 0.00 0.00 0.00 81 1012.2
20260510062506 53 255 0.0 0.0 0.00 0.00 0.00 81 1012.1
20260510061956 54 255 0.0 0.0 0.00 0.00 0.00 80 1012.2
20260510061446 54 255 0.0 0.0 0.00 0.00 0.00 80 1012.2
20260510060932 54 255 0.0 0.0 0.00 0.00 0.00 79 1012.3
20260510060415 54 255 0.0 0.0 0.00 0.00 0.00 79 1012.4
20260510055910 54 255 0.0 0.0 0.00 0.00 0.00 78 1012.4
20260510055411 55 255 0.0 0.0 0.00 0.00 0.00 77 1012.5
20260510054909 55 255 0.0 0.0 0.00 0.00 0.00 77 1012.5
20260510054401 55 255 0.0 0.0 0.00 0.00 0.00 78 1012.5
20260510053855 55 255 0.0 0.0 0.00 0.00 0.00 78 1012.4
20260510053353 55 255 0.0 0.0 0.00 0.00 0.00 78 1012.5
20260510052853 55 255 0.0 0.0 0.00 0.00 0.00 78 1012.5
20260510052347 55 255 0.0 0.0 0.00 0.00 0.00 76 1012.6
20260510051845 55 255 0.0 0.0 0.00 0.00 0.00 76 1012.6
20260510051345 55 255 0.0 0.0 0.00 0.00 0.00 77 1012.6
20260510050839 55 255 0.0 0.0 0.00 0.00 0.00 77 1012.6
20260510050813 56 255 0.0 0.0 0.00 0.00 0.00 76 1012.6
20260510050031 56 255 0.0 0.0 0.00 0.00 0.00 76 1012.5
20260510045306 56 255 0.0 0.0 0.00 0.00 0.00 75 1012.4
20260510044745 56 255 0.0 0.0 0.00 0.00 0.00 74 1012.4
20260510044456 56 255 0.0 0.0 0.00 0.00 0.00 74 1012.5
20260510043733 56 255 0.0 0.0 0.00 0.00 0.00 75 1012.5
20260510043459 56 255 0.0 0.0 0.00 0.00 0.00 75 1012.3
20260510042731 57 255 0.0 0.0 0.00 0.00 0.00 75 1012.3
20260510042215 57 255 0.0 0.0 0.00 0.00 0.00 75 1012.3
20260510042152 57 255 0.0 0.0 0.00 0.00 0.00 74 1012.4
20260510041203 57 255 0.0 0.0 0.00 0.00 0.00 73 1012.5
20260510040703 58 255 0.0 0.0 0.00 0.00 0.00 72 1012.4
20260510040201 58 255 0.0 0.0 0.00 0.00 0.00 72 1012.4
20260510035641 58 255 0.0 0.0 0.00 0.00 0.00 72 1012.4
20260510035410 58 255 0.0 0.0 0.00 0.00 0.00 71 1012.4
20260510034633 58 255 0.0 0.0 0.00 0.00 0.00 70 1012.4
20260510034127 58 255 0.0 0.0 0.00 0.00 0.00 70 1012.4
20260510033627 58 255 0.0 0.0 0.00 0.00 0.00 71 1012.5
20260510033121 57 255 0.0 0.0 0.00 0.00 0.00 72 1012.4
20260510032609 57 255 0.0 0.0 0.00 0.00 0.00 73 1012.3
20260510032045 57 255 0.0 0.0 0.00 0.00 0.00 74 1012.3
20260510031542 57 255 0.0 0.0 0.00 0.00 0.00 74 1012.2
20260510031031 57 255 0.0 0.0 0.00 0.00 0.00 73 1012.3
20260510030739 58 255 0.0 0.0 0.00 0.00 0.00 73 1012.3
20260510030009 58 255 0.0 0.0 0.00 0.00 0.00 72 1012.5
20260510025457 58 255 0.0 0.0 0.00 0.00 0.00 72 1012.4
20260510025213 58 255 0.0 0.0 0.00 0.00 0.00 72 1012.4
20260510024447 58 255 0.0 0.0 0.00 0.00 0.00 70 1012.4
20260510023949 58 255 0.0 0.0 0.00 0.00 0.00 71 1012.4
20260510023449 58 255 0.0 0.0 0.00 0.00 0.00 70 1012.4
20260510022946 58 255 0.0 0.0 0.00 0.00 0.00 71 1012.2
20260510022442 59 255 0.0 0.0 0.00 0.00 0.00 70 1012.2
20260510021935 59 255 0.0 0.0 0.00 0.00 0.00 70 1012.2
20260510021419 59 255 0.0 0.0 0.00 0.00 0.00 70 1012.1
20260510021135 59 255 0.0 0.0 0.00 0.00 0.00 69 1012.1
20260510020357 60 255 0.0 0.0 0.00 0.00 0.00 68 1011.9
20260510015849 60 254 0.0 0.0 0.00 0.00 0.00 67 1011.8
20260510015838 60 254 0.0 0.0 0.00 0.00 0.00 68 1011.8
20260510014843 60 254 0.0 0.0 0.00 0.00 0.00 67 1011.4
20260510014337 60 254 0.0 0.0 0.00 0.00 0.00 68 1011.3
20260510013827 60 254 0.0 0.0 0.00 0.00 0.00 67 1011.2
20260510013321 60 254 0.0 0.0 0.00 0.00 0.00 65 1011.2
20260510012805 60 254 0.0 0.0 0.00 0.00 0.00 65 1011.2
20260510012259 61 254 0.0 0.0 0.00 0.00 0.00 66 1011.1
20260510011755 61 254 0.0 0.0 0.00 0.00 0.00 67 1011.0
20260510011244 61 254 0.0 0.0 0.00 0.00 0.00 65 1010.8
20260510010740 61 254 0.0 0.0 0.00 0.00 0.00 65 1011.0
20260510010231 62 250 0.0 0.0 0.00 0.00 0.00 63 1011.1
20260510005730 62 250 0.0 0.0 0.00 0.00 0.00 63 1010.9
20260510005229 61 249 0.0 0.0 0.00 0.00 0.00 60 1010.9
20260510004723 61 249 0.0 0.0 0.00 0.00 0.00 66 1010.8
20260510004222 61 249 0.0 0.0 0.00 0.00 0.00 66 1010.8
20260510003701 61 249 0.0 0.0 0.00 0.00 0.00 67 1010.8
20260510003159 62 249 0.0 0.0 0.00 0.00 0.00 67 1010.7
20260510002650 62 249 0.0 0.0 0.00 0.00 0.00 66 1010.8
20260510002611 63 249 0.0 0.0 0.00 0.00 0.00 64 1010.7
20260510002242 63 249 0.0 0.0 0.00 0.00 0.00 65 1010.8
20260510001146 64 249 0.0 0.0 0.00 0.00 0.00 63 1010.6
20260510000637 66 249 0.0 0.0 0.00 0.00 0.00 60 1010.6
20260510000334 67 249 0.0 0.0 0.00 0.00 0.00 58 1010.7
20260509235607 68 249 0.0 0.0 0.00 0.00 0.00 56 1010.7
20260509235056 69 249 0.0 0.0 0.00 0.00 0.00 52 1010.6
20260509234553 69 249 0.0 0.0 0.00 0.00 0.00 49 1010.6
20260509234049 70 249 0.0 0.0 0.00 0.00 0.00 50 1010.4
20260509233543 70 173 0.0 0.0 0.00 0.00 0.00 48 1010.6
20260509233522 70 173 0.0 0.0 0.00 0.00 0.00 47 1010.5
20260509232537 70 18 0.0 1.0 0.00 0.00 0.00 50 1010.4
20260509232035 70 18 0.0 3.0 0.00 0.00 0.00 48 1010.5
20260509231520 71 20 0.0 3.0 0.00 0.00 0.00 48 1010.5
20260509231013 71 290 1.0 6.0 0.00 0.00 0.00 49 1010.4
20260509230508 72 189 1.0 10.0 0.00 0.00 0.00 47 1010.4
20260509225955 72 268 1.0 10.0 0.00 0.00 0.00 46 1010.4
20260509225930 72 328 1.0 6.0 0.00 0.00 0.00 47 1010.3
20260509225209 72 335 1.0 7.0 0.00 0.00 0.00 45 1010.4
20260509224444 72 284 1.0 7.0 0.00 0.00 0.00 49 1010.5
20260509223942 73 280 1.0 6.0 0.00 0.00 0.00 46 1010.5
20260509223442 72 238 0.0 6.0 0.00 0.00 0.00 50 1010.4
20260509222941 72 90 0.0 0.0 0.00 0.00 0.00 52 1010.4
20260509222657 72 90 0.0 0.0 0.00 0.00 0.00 51 1010.3
20260509221933 72 90 0.0 0.0 0.00 0.00 0.00 59 1010.3
20260509221427 72 90 0.0 0.0 0.00 0.00 0.00 58 1010.3
20260509221140 72 90 0.0 0.0 0.00 0.00 0.00 56 1010.3
20260509220403 72 90 0.0 0.0 0.00 0.00 0.00 56 1010.4
20260509215855 72 90 0.0 0.0 0.00 0.00 0.00 56 1010.3
20260509215343 72 90 0.0 1.0 0.00 0.00 0.00 60 1010.3
20260509214827 72 90 0.0 1.0 0.00 0.00 0.00 59 1010.4
20260509214309 72 117 0.0 0.0 0.00 0.00 0.00 58 1010.3
20260509213803 72 117 0.0 0.0 0.00 0.00 0.00 54 1010.3
20260509213257 73 117 0.0 0.0 0.00 0.00 0.00 55 1010.2
20260509213022 73 117 0.0 0.0 0.00 0.00 0.00 54 1010.2
20260509212257 72 117 0.0 0.0 0.00 0.00 0.00 54 1010.2
20260509211755 72 117 0.0 0.0 0.00 0.00 0.00 54 1010.1
20260509211246 72 117 0.0 0.0 0.00 0.00 0.00 55 1010.1
20260509210744 72 117 0.0 0.0 0.00 0.00 0.00 57 1010.1
20260509210235 72 117 0.0 0.0 0.00 0.00 0.00 58 1010.1
20260509205959 72 117 0.0 0.0 0.00 0.00 0.00 56 1010.1
20260509205456 72 117 0.0 0.0 0.00 0.00 0.00 57 1010.0
20260509204729 72 117 0.0 0.0 0.00 0.00 0.00 58 1010.0
20260509204214 72 117 0.0 0.0 0.00 0.00 0.00 58 1010.0
20260509203655 72 117 0.0 0.0 0.00 0.00 0.00 58 1009.9
20260509203155 72 117 0.0 0.0 0.00 0.00 0.00 56 1009.9
20260509202654 72 117 0.0 5.0 0.00 0.00 0.00 56 1010.0
20260509202149 72 117 0.0 5.0 0.00 0.00 0.00 55 1010.0
20260509202118 72 114 1.0 5.0 0.00 0.00 0.00 57 1009.9
20260509201125 72 114 1.0 6.0 0.00 0.00 0.00 57 1010.0
20260509200623 72 114 1.0 8.0 0.00 0.00 0.00 54 1010.1
20260509200348 73 118 0.0 8.0 0.00 0.00 0.00 53 1010.0
20260509195622 73 172 1.0 6.0 0.00 0.00 0.00 54 1010.1
20260509195119 73 175 2.0 6.0 0.00 0.00 0.00 57 1010.1
20260509194617 73 124 5.0 13.0 0.00 0.00 0.00 56 1010.1
20260509194117 72 123 5.0 13.0 0.00 0.00 0.00 55 1010.0
20260509193616 73 136 3.0 11.0 0.00 0.00 0.00 59 1010.0
20260509193115 73 150 2.0 11.0 0.00 0.00 0.00 56 1010.1
20260509192617 73 157 2.0 10.0 0.00 0.00 0.00 58 1010.2
20260509192113 72 202 5.0 11.0 0.00 0.00 0.00 58 1010.3
20260509191606 72 108 3.0 11.0 0.00 0.00 0.00 58 1010.4
20260509191107 71 127 5.0 11.0 0.00 0.00 0.00 61 1010.3
20260509190825 70 128 6.0 11.0 0.00 0.00 0.00 57 1010.3
20260509190106 71 124 6.0 11.0 0.00 0.00 0.00 57 1010.4
20260509185607 71 127 5.0 11.0 0.00 0.00 0.00 59 1010.5
20260509185104 71 144 3.0 10.0 0.00 0.00 0.00 58 1010.4
20260509184603 70 133 3.0 10.0 0.00 0.00 0.00 62 1010.4
20260509184103 69 149 6.0 13.0 0.00 0.00 0.00 62 1010.5
20260509183604 70 96 7.0 13.0 0.00 0.00 0.00 59 1010.6
20260509183055 70 127 5.0 13.0 0.00 0.00 0.00 59 1010.6
20260509182551 71 131 3.0 13.0 0.00 0.00 0.00 57 1010.8
20260509182053 72 166 2.0 10.0 0.00 0.00 0.00 54 1011.0
20260509181549 71 115 3.0 11.0 0.00 0.00 0.00 57 1010.9
20260509181049 71 178 3.0 11.0 0.00 0.00 0.00 56 1011.0
20260509180551 72 156 2.0 11.0 0.00 0.00 0.00 57 1011.1
20260509180307 73 311 2.0 11.0 0.00 0.00 0.00 56 1011.4
20260509175544 72 151 2.0 11.0 0.00 0.00 0.00 57 1011.2
20260509175535 72 130 1.0 8.0 0.00 0.00 0.00 56 1011.0
20260509174545 72 202 0.0 8.0 0.00 0.00 0.00 57 1011.1
20260509174039 71 160 0.0 0.0 0.00 0.00 0.00 58 1011.1
20260509173529 69 99 0.0 0.0 0.00 0.00 0.00 61 1010.9
20260509173019 69 132 0.0 0.0 0.00 0.00 0.00 63 1011.0
20260509172511 68 131 0.0 0.0 0.00 0.00 0.00 64 1011.2
20260509172011 68 153 0.0 0.0 0.00 0.00 0.00 62 1011.2
20260509171439 69 140 1.0 7.0 0.00 0.00 0.00 62 1011.3
20260509170927 69 141 3.0 10.0 0.00 0.00 0.00 61 1011.5
20260509170417 69 155 2.0 10.0 0.00 0.00 0.00 61 1011.5
20260509170132 69 178 2.0 10.0 0.00 0.00 0.00 60 1011.7
20260509165351 70 159 1.0 10.0 0.00 0.00 0.00 60 1012.1
20260509165105 71 32 1.0 8.0 0.00 0.00 0.00 65 1012.3
20260509164325 68 113 1.0 8.0 0.00 0.00 0.00 62 1012.1
20260509163815 69 121 1.0 7.0 0.00 0.00 0.00 65 1012.2
20260509163527 68 121 3.0 10.0 0.00 0.00 0.00 63 1012.1
20260509162751 67 113 5.0 10.0 0.00 0.00 0.00 64 1011.8
20260509162246 67 108 5.0 10.0 0.00 0.00 0.00 66 1011.8
20260509161747 67 134 5.0 10.0 0.00 0.00 0.00 62 1011.7
20260509161247 68 107 3.0 10.0 0.00 0.00 0.00 65 1011.9
20260509160747 67 167 2.0 10.0 0.00 0.00 0.00 65 1011.7
20260509160500 68 126 0.0 8.0 0.00 0.00 0.00 62 1011.8
20260509155745 67 136 0.0 0.0 0.00 0.00 0.00 65 1011.9
20260509155231 66 133 0.0 0.0 0.00 0.00 0.00 67 1011.8
20260509154729 65 136 0.0 0.0 0.00 0.00 0.00 65 1011.8
20260509154227 65 130 0.0 0.0 0.00 0.00 0.00 65 1012.1
20260509153718 64 130 0.0 0.0 0.00 0.00 0.00 66 1012.1